sat.trackr.live / text

‹ back to catalog

STARLINK-4130

NORAD 53263 · 2022-086X

PAYLOAD ACTIVE UNKNOWN

§ Identity

Operator
Country
US
Launch date
2022-07-24
Launch site
AFETR
Launch vehicle
Mass (kg)
RCS (m²)

Purposes: comms

External: N2YO · Heavens-Above · Gunter

§ Orbital elements

Epoch: 2026-09-20T01:34:24.989664Z

Period
93.85 min
Inclination
53.1621°
Eccentricity
0.0001187
Mean motion
15.34384970 rev/d
Perigee alt
461.9 km
Apogee alt
463.6 km
Semi-major
6,840.9 km
B*
6.9305e-5
RAAN
27.4134°
Arg perigee
83.7805°
Mean anomaly
276.3332°
Rev number
23,060

§ Raw data

STARLINK-41301 53263U 22086X   26263.06556701  .00001965  00000+0  69305-4 0  99932 53263  53.1621  27.4134 0001187  83.7805 276.3332 15.34384970230609

JSON: /api/v1/satellites/53263 · /tle

For live sub-satellite position, see the globe view (requires WebGL).

§ Visibility from observer

Set your observer location to see the next 7 days of passes ≥ 10°. The values pass through the URL so the page stays shareable.

No JS? Fill the form by hand. The geolocation button needs JavaScript.